Location: Navalespino
(40.5894°N, 4.2660°W)
Time: 02:02:47
(UTC+00:00)

Milstar 3 - Pass Details

Date: 18 April 2024
Orbit: 1099 x 5146 km, 28.2° (Epoch: 18 May)

Event Time Altitude Azimuth Distance (km) Brightness Sun altitude
Rises 19:49:04 0° 239° (WSW) 4,262 6.4 -9.6°
Reaches altitude 10° 19:51:39 10° 231° (SW) 3,512 5.8 -10.1°
Maximum altitude 19:59:55 42° 163° (SSE) 2,620 4.4 -11.5°
Enters shadow 20:13:01 13° 101° (E) 5,686 5.8 -13.7°
